Wind_Speed
11 12 13 13 12 9 6 5 10 11 11 12 12 12 12 12 11 9 9 9 10 9 7 7 6 5 6 8 7 3 10 6 6 6 7 7 10 6 5 4 5 10 5 6 5
10 13 13 14 11 8 6 10 10 11 11 11 11 11 11 10 9 8 8 7 5 5 5 4 5 7 6 10 4 4 6 5 7 7 10 11 6 6 8 1 7 8 7 6 5
9 11 13 13 12 9 10 11 12 13 13 12 12 12 12 11 10 8 7 7 6 4 3 3 6 5 10 13 13 3 2 6 7 5 12 10 12 15 3 6 3 6 10 8 4
13 14 14 15 14 13 13 14 14 13 12 12 12 11 10 10 9 9 8 8 8 4 1 1 5 4 10 14 3 7 6 5 12 8 8 8 7 14 5 2 2 5 11 7 3
12 14 15 15 16 16 14 13 12 11 10 9 8 7 6 6 6 6 7 7 7 5 4 3 4 6 10 11 1 1 5 5 3 4 6 11 12 9 7 6 7 2 9 8 3
12 12 14 16 16 14 13 11 10 8 7 6 6 5 4 4 3 4 4 5 5 4 5 5 8 9 7 4 4 5 4 3 1 2 5 10 10 11 8 5 4 5 5 8 4
12 13 14 14 14 13 11 9 8 6 4 3 3 3 3 3 2 3 3 4 4 4 4 5 5 7 7 5 4 9 7 5 5 9 11 9 7 7 9 12 10 8 6 6 4
13 13 14 14 13 12 10 8 6 4 2 1 1 0 1 2 3 3 5 6 6 6 6 4 4 7 7 5 8 3 7 14 10 10 16 7 9 5 7 9 8 8 13 1 7
14 14 14 14 13 12 11 8 7 4 1 2 3 3 3 3 2 6 7 7 6 6 7 5 5 6 6 5 1 4 6 6 12 12 15 8 6 11 10 10 8 7 5 3 6
16 15 15 14 13 12 11 11 8 6 5 5 6 7 7 7 7 7 9 9 8 7 9 7 5 6 7 6 9 15 7 7 15 21 18 13 10 13 8 11 13 12 15 11 3
18 17 16 16 14 12 12 11 9 8 8 8 9 10 10 10 12 12 13 11 10 10 10 7 6 7 9 7 12 14 8 7 12 19 16 13 12 14 9 8 9 7 9 12 5
20 19 17 17 15 13 13 12 12 10 12 14 12 16 14 12 12 17 17 14 10 10 9 6 10 9 10 11 11 7 6 6 4 12 17 16 13 11 6 8 11 10 13 11 11
20 20 18 17 17 16 15 14 14 13 12 17 16 18 19 17 15 13 14 11 10 9 8 7 10 11 10 13 12 6 4 12 9 5 14 16 15 12 5 8 16 18 12 15 13
20 20 19 18 17 16 16 15 14 14 14 15 15 12 12 9 6 5 9 6 7 9 8 8 12 11 11 9 12 7 7 10 10 12 11 10 5 7 8 5 12 15 7 7 12
20 19 18 17 15 14 14 14 13 15 8 6 7 9 9 6 7 3 7 7 8 9 7 9 9 9 7 6 9 8 12 13 11 12 9 2 9 9 18 5 7 15 12 12 12
20 17 15 15 14 13 12 13 11 8 8 8 8 5 4 8 5 5 6 9 8 8 9 11 12 12 10 8 6 11 13 14 13 14 10 10 8 8 15 12 10 13 9 9 11
17 16 15 15 15 14 11 7 9 11 7 4 8 4 2 5 5 4 7 8 9 8 9 9 12 18 14 11 4 12 16 16 15 15 11 14 5 8 9 11 12 15 14 12 11
11 13 14 14 13 11 9 7 13 11 9 9 1 3 5 10 2 3 4 7 8 9 8 8 9 14 16 13 7 11 13 13 15 16 18 18 12 9 15 18 15 20 21 16 13
10 11 13 13 12 11 9 10 16 14 11 8 9 10 11 9 10 7 2 5 6 8 11 10 8 17 17 17 11 8 11 12 12 12 22 12 6 7 12 17 23 23 24 19 15
10 11 12 13 12 12 12 15 16 14 13 13 12 14 13 19 19 14 11 6 12 9 13 11 13 15 15 18 14 11 5 9 14 16 17 13 13 10 14 18 19 25 27 23 15
6 9 9 10 10 13 16 20 19 16 12 19 19 17 19 19 21 22 20 18 25 21 22 22 20 13 21 17 14 14 16 16 18 22 23 18 17 8 10 16 22 23 15 16 13
6 6 8 8 10 13 16 15 17 18 14 18 18 18 19 19 21 24 27 29 28 26 29 32 30 29 22 22 22 19 25 25 26 25 30 23 16 21 22 17 15 26 21 16 15
6 6 9 11 13 14 14 15 16 17 18 18 18 18 19 19 22 26 29 32 33 36 35 33 38 38 35 27 24 22 31 33 35 34 38 35 25 21 29 25 18 19 25 26 20
6 9 9 10 10 11 13 16 20 22 17 17 18 21 20 20 27 24 25 29 33 37 43 46 42 43 45 42 37 37 34 36 38 44 47 47 34 26 24 24 27 30 25 14 21
7 8 10 10 12 15 15 16 19 19 23 23 24 22 23 26 29 31 29 25 26 33 40 48 54 53 47 46 44 43 44 39 44 45 49 46 33 34 35 33 38 34 27 25 27
9 10 11 13 15 16 16 17 20 17 18 25 27 27 27 30 32 31 33 34 32 32 39 42 47 50 51 48 46 43 39 45 47 47 53 55 43 32 48 45 45 43 43 45 22
12 14 16 18 18 18 14 16 19 20 21 23 27 31 31 33 34 37 39 38 38 38 35 42 44 48 51 48 50 47 43 42 44 46 49 58 59 38 39 43 51 47 43 36 28
Wind_Direction
180 177 173 169 166 161 146 125 119 117 112 107 106 104 101 103 108 114 123 134 156 170 179 192 215 214 210 207 200 212 19 59 348 344 359 341 303 300 326 268 334 351 12 33 23
171 177 178 175 172 165 147 134 126 121 115 110 104 99 96 97 99 102 107 118 134 141 156 180 205 225 226 237 190 164 35 76 340 357 26 11 341 299 250 115 323 11 6 17 38
137 160 173 172 175 167 145 133 127 122 116 108 99 93 88 84 85 84 90 97 101 116 161 195 223 234 262 249 236 169 35 15 18 347 29 357 359 336 286 246 297 28 13 349 21
121 127 143 150 153 150 140 130 123 118 113 106 99 93 87 84 85 80 77 81 88 107 153 244 258 288 273 270 236 7 23 16 17 336 28 5 347 15 19 96 288 285 339 309 358
136 134 138 142 145 144 139 133 128 121 113 105 97 92 86 83 75 70 67 69 72 54 40 19 338 330 303 290 52 228 60 57 53 359 20 351 347 16 20 42 49 359 321 305 320
152 146 144 146 148 147 145 144 138 126 112 97 93 89 65 62 62 47 38 34 40 30 14 10 2 348 317 355 237 247 101 46 45 47 56 2 343 359 356 15 61 11 2 275 315
167 162 159 159 159 160 160 157 152 139 116 91 95 97 59 23 30 27 352 337 341 334 342 349 11 321 310 348 319 315 14 31 359 13 350 352 320 346 349 340 349 26 4 250 217
179 175 178 177 178 180 180 176 175 169 137 50 334 235 16 359 333 340 331 323 307 303 307 314 332 294 323 8 4 353 29 55 9 351 4 1 313 315 322 323 329 343 352 288 209
193 190 189 193 199 203 204 204 205 210 239 324 319 301 300 302 291 310 316 325 297 284 290 289 281 292 313 346 55 280 341 22 354 346 347 355 343 352 310 302 293 288 332 303 192
201 202 201 203 210 215 216 218 222 241 272 292 300 305 294 289 290 290 302 305 281 274 276 282 276 270 276 285 266 248 275 356 343 339 344 353 356 32 344 284 321 328 333 315 218
207 209 211 213 221 223 224 225 233 258 274 281 285 291 284 278 287 291 291 286 282 272 272 288 275 256 267 273 281 281 300 2 340 319 327 347 4 350 36 28 333 324 337 314 287
210 213 216 221 227 231 230 231 246 263 288 284 287 289 286 277 271 280 280 274 262 251 257 256 251 257 253 255 259 272 321 273 345 305 321 336 357 328 77 56 15 309 303 297 307
213 217 219 225 231 238 244 247 257 271 275 287 294 288 288 281 274 274 268 263 254 248 249 258 256 252 250 267 263 257 273 276 308 241 299 314 323 313 5 40 39 22 341 330 317
216 219 223 228 235 243 251 259 271 278 288 293 286 283 281 296 284 254 259 246 242 250 259 251 265 260 261 253 256 263 287 277 299 305 299 289 256 269 306 13 48 23 2 352 312
220 221 224 229 238 245 255 269 281 284 282 262 263 274 284 291 286 243 253 250 241 252 253 255 259 272 280 287 290 299 285 281 286 288 304 241 281 260 333 352 54 29 18 335 295
221 222 223 228 235 245 261 279 273 269 257 248 233 223 211 263 273 287 270 268 261 254 252 261 263 245 235 243 294 290 282 286 281 280 256 227 288 17 6 334 348 14 29 358 289
217 224 226 230 242 248 242 231 259 243 256 216 161 164 189 277 256 272 284 279 272 266 277 290 296 289 263 242 303 326 301 286 278 269 235 240 242 13 320 317 335 333 7 10 13
204 212 219 224 218 205 212 227 246 269 273 322 93 69 272 199 261 274 297 283 278 288 280 271 241 250 270 289 261 310 302 301 294 252 241 247 294 335 329 319 321 322 336 345 350
189 193 195 199 208 220 224 230 244 256 261 305 255 275 285 264 224 222 299 338 259 258 258 259 267 245 263 259 257 272 309 297 287 266 258 272 286 297 311 311 308 310 321 324 334
207 214 222 228 226 228 231 237 248 262 272 266 249 256 263 270 283 273 252 269 266 274 285 258 254 233 256 266 274 282 289 320 332 303 275 248 220 304 328 317 310 310 311 310 324
216 228 227 230 229 233 227 235 246 245 242 253 253 247 248 252 264 282 270 259 263 260 263 260 264 179 242 234 257 268 280 286 294 290 296 269 243 252 267 302 292 307 289 336 318
242 235 238 238 236 248 253 259 259 266 262 242 248 250 258 271 265 267 270 266 275 274 269 261 270 267 244 250 237 244 254 255 260 268 272 269 252 260 259 269 287 292 290 286 314
243 250 247 242 241 248 257 263 274 270 272 270 270 272 274 265 258 255 256 264 272 273 267 270 269 274 270 262 240 229 246 254 262 266 269 264 252 251 257 258 263 258 265 272 297
214 242 240 257 253 254 258 261 263 274 285 285 278 277 277 271 272 265 266 262 267 270 271 277 271 269 272 274 267 247 241 248 254 261 262 265 261 240 242 250 236 239 256 270 273
248 237 257 261 260 261 265 275 280 292 293 288 291 287 281 277 275 278 278 266 260 260 259 261 267 272 269 272 273 272 265 253 256 260 267 269 268 241 236 243 250 256 245 250 261
264 276 266 264 269 277 284 284 283 293 288 295 295 290 292 291 291 285 279 275 265 255 260 257 261 264 267 267 263 262 262 260 251 255 265 266 265 255 237 232 238 238 254 263 254
269 276 281 284 290 290 292 289 290 290 289 288 288 294 300 298 294 288 286 283 278 272 262 262 263 262 263 265 268 264 258 254 252 253 258 257 263 251 260 250 239 245 250 251 244
Height
5894 5896 5897 5899 5901 5902 5903 5904 5905 5905 5905 5906 5907 5907 5908 5908 5909 5909 5910 5911 5911 5911 5912 5912 5913 5913 5914 5913 5913 5912 5913 5912 5912 5911 5907 5908 5906 5907 5910 5911 5910 5912 5912 5910 5909
5894 5896 5897 5899 5901 5903 5904 5905 5906 5907 5907 5908 5908 5909 5909 5910 5910 5911 5912 5911 5912 5912 5913 5912 5912 5911 5912 5914 5910 5913 5913 5912 5913 5912 5909 5907 5908 5906 5909 5907 5909 5911 5910 5910 5910
5895 5896 5898 5900 5902 5903 5905 5906 5907 5908 5909 5910 5910 5911 5911 5911 5912 5912 5912 5912 5913 5912 5912 5912 5911 5909 5909 5910 5910 5910 5911 5912 5913 5913 5910 5909 5907 5906 5909 5910 5909 5908 5908 5909 5910
5896 5897 5898 5900 5902 5904 5906 5907 5909 5910 5911 5911 5912 5912 5912 5913 5914 5913 5913 5913 5913 5912 5912 5911 5910 5909 5910 5909 5908 5909 5910 5911 5910 5912 5910 5910 5909 5907 5908 5910 5906 5905 5907 5908 5909
5898 5899 5900 5902 5904 5905 5907 5908 5910 5911 5912 5913 5913 5913 5914 5914 5914 5914 5914 5914 5913 5912 5913 5912 5910 5910 5908 5908 5907 5909 5911 5909 5910 5910 5909 5907 5907 5907 5909 5908 5907 5907 5905 5906 5906
5899 5901 5902 5903 5905 5907 5908 5910 5911 5912 5913 5913 5914 5914 5914 5915 5915 5915 5915 5915 5915 5914 5913 5912 5910 5909 5910 5908 5908 5907 5909 5909 5910 5910 5907 5908 5906 5906 5908 5908 5907 5906 5904 5905 5902
5899 5901 5903 5905 5906 5908 5909 5910 5911 5913 5913 5914 5914 5914 5914 5915 5915 5914 5915 5915 5915 5914 5913 5912 5911 5911 5909 5907 5907 5907 5909 5909 5910 5909 5907 5907 5905 5904 5903 5902 5902 5906 5904 5904 5901
5899 5901 5903 5905 5906 5908 5909 5911 5912 5913 5914 5914 5914 5915 5915 5914 5914 5914 5914 5913 5913 5912 5912 5912 5911 5911 5908 5908 5909 5907 5907 5906 5907 5909 5907 5905 5905 5903 5902 5902 5902 5902 5903 5901 5901
5897 5899 5901 5904 5905 5907 5909 5910 5912 5913 5914 5914 5914 5914 5914 5914 5914 5913 5912 5911 5911 5910 5910 5910 5911 5910 5908 5908 5908 5908 5906 5906 5907 5907 5905 5905 5904 5902 5901 5901 5900 5902 5902 5903 5900
5895 5897 5900 5902 5904 5906 5908 5909 5910 5912 5913 5913 5913 5914 5912 5912 5911 5911 5910 5910 5909 5909 5908 5908 5909 5909 5908 5907 5908 5907 5905 5904 5904 5906 5903 5902 5901 5900 5900 5901 5900 5899 5899 5902 5901
5893 5895 5897 5900 5902 5904 5906 5908 5910 5911 5910 5911 5911 5910 5910 5909 5908 5908 5908 5907 5906 5906 5906 5906 5907 5907 5905 5906 5906 5905 5903 5902 5903 5905 5903 5901 5898 5899 5902 5900 5898 5897 5896 5899 5898
5890 5892 5895 5897 5900 5901 5903 5905 5907 5909 5909 5907 5908 5905 5906 5906 5906 5904 5904 5904 5904 5904 5905 5906 5904 5904 5904 5904 5904 5903 5901 5903 5905 5903 5901 5899 5898 5899 5901 5899 5898 5895 5894 5895 5897
5887 5889 5892 5895 5897 5899 5901 5902 5903 5905 5906 5904 5904 5901 5901 5901 5901 5900 5900 5900 5901 5901 5902 5903 5903 5902 5902 5903 5903 5902 5900 5903 5903 5902 5899 5898 5899 5898 5899 5897 5897 5896 5895 5893 5895
5884 5886 5889 5892 5896 5896 5897 5898 5900 5900 5902 5901 5899 5898 5897 5896 5897 5897 5896 5898 5898 5899 5899 5901 5900 5901 5900 5900 5900 5900 5898 5900 5901 5900 5899 5898 5898 5897 5897 5896 5895 5895 5894 5893 5893
5881 5884 5887 5890 5891 5893 5894 5895 5896 5897 5898 5899 5897 5896 5895 5896 5896 5896 5896 5896 5896 5897 5899 5899 5899 5897 5897 5897 5897 5898 5897 5898 5898 5897 5898 5897 5896 5899 5897 5895 5893 5894 5893 5892 5889
5878 5881 5884 5887 5888 5890 5891 5892 5893 5894 5893 5894 5893 5893 5894 5894 5894 5895 5896 5895 5895 5895 5895 5895 5895 5893 5893 5893 5894 5895 5895 5895 5895 5894 5895 5895 5895 5894 5893 5893 5891 5893 5894 5891 5889
5876 5879 5882 5884 5885 5887 5889 5890 5891 5888 5889 5889 5890 5891 5892 5892 5892 5893 5893 5894 5893 5893 5892 5893 5893 5892 5891 5890 5891 5891 5891 5890 5892 5891 5893 5892 5890 5888 5888 5887 5887 5888 5889 5890 5889
5874 5876 5878 5880 5882 5885 5887 5888 5886 5886 5887 5887 5887 5889 5889 5889 5888 5889 5890 5890 5889 5889 5889 5890 5893 5891 5889 5889 5889 5889 5889 5888 5887 5887 5888 5887 5887 5886 5885 5885 5883 5883 5885 5886 5886
5873 5875 5876 5878 5880 5883 5885 5884 5882 5883 5884 5885 5884 5883 5884 5885 5886 5884 5886 5886 5885 5886 5887 5885 5886 5886 5887 5886 5886 5887 5886 5884 5883 5884 5883 5885 5884 5882 5882 5882 5880 5880 5881 5882 5882
5872 5873 5875 5876 5878 5880 5881 5880 5879 5881 5883 5883 5882 5882 5883 5879 5879 5880 5881 5884 5880 5880 5880 5880 5879 5881 5883 5882 5881 5881 5883 5882 5881 5880 5880 5881 5879 5880 5880 5879 5878 5877 5877 5877 5877
5870 5871 5872 5874 5875 5876 5876 5874 5874 5876 5878 5879 5879 5879 5877 5877 5877 5876 5875 5877 5872 5874 5872 5871 5873 5879 5877 5877 5878 5878 5877 5878 5877 5877 5874 5874 5879 5878 5878 5878 5876 5875 5875 5876 5875
5868 5869 5869 5871 5873 5872 5873 5874 5874 5874 5875 5875 5875 5874 5875 5875 5875 5874 5873 5868 5869 5869 5869 5866 5865 5866 5873 5873 5874 5874 5870 5870 5869 5871 5868 5868 5871 5872 5873 5874 5872 5871 5871 5871 5872
5867 5868 5868 5869 5869 5868 5870 5870 5870 5869 5871 5872 5871 5871 5871 5872 5871 5869 5869 5865 5866 5865 5866 5866 5863 5862 5862 5868 5871 5867 5864 5863 5863 5862 5861 5862 5866 5864 5866 5868 5869 5866 5867 5866 5866
5866 5865 5866 5867 5867 5867 5866 5866 5864 5862 5866 5866 5865 5864 5865 5865 5861 5864 5865 5864 5863 5859 5857 5855 5857 5856 5855 5857 5859 5859 5858 5857 5857 5854 5853 5854 5857 5862 5860 5860 5860 5856 5858 5858 5860
5862 5862 5862 5862 5862 5861 5862 5863 5861 5862 5859 5859 5858 5858 5858 5856 5854 5853 5854 5857 5856 5851 5849 5846 5843 5841 5845 5845 5846 5849 5851 5852 5848 5847 5844 5846 5846 5850 5851 5850 5853 5852 5851 5852 5855
5858 5858 5859 5858 5858 5859 5859 5859 5856 5858 5856 5852 5850 5849 5849 5846 5846 5845 5843 5841 5843 5843 5837 5834 5832 5830 5829 5831 5832 5835 5841 5842 5840 5837 5835 5832 5838 5834 5839 5838 5842 5842 5845 5850 5851
5855 5854 5854 5853 5853 5853 5854 5852 5851 5851 5850 5848 5844 5842 5842 5839 5835 5831 5829 5829 5828 5827 5827 5822 5820 5817 5815 5819 5816 5820 5825 5826 5827 5824 5819 5821 5822 5828 5829 5827 5829 5835 5838 5844 5845